Weather History for KCXO - January, 2013

Change the Weather History Date:

Thursday, January 3, 2013

  Actual Average Record
Temperature  
Mean Temperature 42 °F -  
Max Temperature 52 °F 60 °F 82 °F (2009)
Min Temperature 33 °F 39 °F 21 °F (2002)
Degree Days  
Heating Degree Days 22    
Moisture  
Dew Point 33 °F    
Average Humidity 70    
Maximum Humidity 92    
Minimum Humidity 40    
Precipitation  
Precipitation 0.00 in - - ()
Sea Level Pressure  
Sea Level Pressure 30.38 in    
Wind  
Wind Speed 5 mph (North)    
Max Wind Speed 12 mph    
Max Gust Speed 18 mph    
Visibility 10 miles    
Events Rain    
Averages and records for this station are not official NWS values.
T = Trace of Precipitation, MM = Missing Value Source: NWS Daily Summary

Daily Weather History Graph

Daily Weather History Graph

Search for Another Location

Airport or City:

Trip Planner

Search our weather history database for the weather conditions in past years. The results will help you decide how hot, cold, wet, or windy it might be!

Date:

Astronomy

Jan. 03, 2013 Rise Set
Actual Time 7:18 AM CST 5:33 PM CST
Civil Twilight 6:52 AM CST 6:00 PM CST
Nautical Twilight 6:22 AM CST 6:30 PM CST
Astronomical Twilight 5:53 AM CST 6:59 PM CST
Moon 11:40 PM CST (1/3) 10:58 AM CST (1/3)
Length of Visible Light 11h 07m
Length of Day
10h 15m
Waning Gibbous, 65% of the Moon is Illuminated
Jan 3
Waning Gibbous
Jan 4
Last Quarter
Jan 11
New
Jan 18
First Quarter
Jan 26
Full

Hourly Weather History & Observations

Time (CST) Temp. Windchill Dew Point Humidity Pressure Visibility Wind Dir Wind Speed Gust Speed Precip Events Conditions
1:53 AM 37.0 °F 33.3 °F 32.0 °F 82% 30.33 in 10.0 mi North 4.6 mph - N/A   Overcast
2:53 AM 36.0 °F 33.3 °F 32.0 °F 86% 30.34 in 10.0 mi North 3.5 mph - N/A   Clear
3:53 AM 35.1 °F 32.2 °F 30.9 °F 85% 30.34 in 10.0 mi North 3.5 mph - N/A   Clear
4:53 AM 33.1 °F 30.0 °F 30.9 °F 92% 30.35 in 10.0 mi North 3.5 mph - N/A   Mostly Cloudy
5:53 AM 33.1 °F 30.0 °F 30.9 °F 92% 30.37 in 10.0 mi North 3.5 mph - N/A   Overcast
6:53 AM 33.1 °F 26.9 °F 30.9 °F 92% 30.37 in 10.0 mi North 6.9 mph - N/A   Scattered Clouds
7:53 AM 35.1 °F 30.1 °F 30.9 °F 85% 30.40 in 10.0 mi North 5.8 mph - N/A   Overcast
8:53 AM 36.0 °F 33.3 °F 30.9 °F 82% 30.43 in 10.0 mi North 3.5 mph - N/A   Overcast
9:53 AM 39.0 °F 33.4 °F 30.9 °F 73% 30.45 in 10.0 mi North 8.1 mph - N/A   Overcast
10:53 AM 46.0 °F 41.0 °F 30.9 °F 56% 30.42 in 10.0 mi North 10.4 mph - N/A   Clear
11:53 AM 48.9 °F - 28.0 °F 44% 30.39 in 10.0 mi NNE 10.4 mph - N/A   Clear
12:53 PM 52.0 °F - 28.0 °F 40% 30.35 in 10.0 mi North 11.5 mph 18.4 mph N/A   Clear
1:53 PM 51.1 °F - 28.9 °F 43% 30.34 in 10.0 mi North 6.9 mph - N/A   Mostly Cloudy
2:53 PM 50.0 °F - 30.0 °F 46% 30.36 in 10.0 mi North 10.4 mph - N/A   Overcast
3:53 PM 48.9 °F - 33.1 °F 54% 30.36 in 10.0 mi North 8.1 mph - 0.00 in Rain Light Rain
4:53 PM 48.0 °F - 36.0 °F 63% 30.38 in 10.0 mi North 3.5 mph - 0.00 in Rain Light Rain
5:53 PM 46.9 °F - 37.0 °F 68% 30.39 in 10.0 mi North 3.5 mph - 0.00 in   Overcast
6:53 PM 46.9 °F - 37.9 °F 71% 30.40 in 10.0 mi Calm Calm - N/A   Overcast
7:53 PM 46.0 °F - 39.0 °F 76% 30.41 in 10.0 mi Calm Calm - N/A   Overcast
8:53 PM 46.0 °F 44.8 °F 36.0 °F 68% 30.42 in 10.0 mi North 3.5 mph - N/A   Overcast
9:53 PM 46.0 °F 44.8 °F 35.1 °F 66% 30.42 in 10.0 mi North 3.5 mph - N/A   Overcast
10:53 PM 46.0 °F - 36.0 °F 68% 30.41 in 10.0 mi Calm Calm - N/A   Overcast
11:53 PM 42.1 °F - 36.0 °F 79% 30.39 in 10.0 mi Calm Calm - N/A   Mostly Cloudy